Regional Weather Roundup
Issued by NWS

Home | Current Version | Previous Version | Graphics & Text | Print | Product List | Glossary On
Versions: 1 2 3 4 5 6 7 8 9 10 11 12 13 14 15 16 17 18 19 20 21 22 23 24 25 26 27 28 29 30 31 32 33 34 35 36 37 38 39 40 41 42 43 44 45 46 47 48 49 50
000
ASUS43 KMPX 230110
RWRMN
WEATHER ROUNDUP FOR MINNESOTA
NATIONAL WEATHER SERVICE TWIN CITIES/CHANHASSEN MN
800 PM CDT FRI JUL 22 2016


NOTE: "FAIR" INDICATES FEW OR NO CLOUDS BELOW 12,000 FEET WITH NO
SIGNIFICANT WEATHER AND/OR OBSTRUCTIONS TO VISIBILITY. N/A MEANS
CURRENT SKY AND/OR WEATHER CONDITIONS ARE NOT AVAILABLE.

MNZ060>063-068>070-230200-
   Twin Cities Metro

CITY           SKY/WX    TMP DP  RH WIND       PRES   REMARKS
TWIN CITIES    MOCLDY    89  63  41 S8        29.95F HX  90
ST PAUL        CLEAR     87  65  47 E6        29.95F
CRYSTAL        CLEAR     88  60  38 NE3       29.94F
BLAINE         PTCLDY    88  64  45 NE5       29.96F
LAKEVILLE      CLEAR     81  70  69 SE3       29.96F
EDEN PRAIRIE   CLEAR     88  60  38 S5        29.95F
LAKEVILLE      CLEAR     81  70  69 SE3       29.96F
SOUTH ST PAUL  CLEAR     88  62  40 CALM      29.95F
LAKE ELMO      FAIR      84  68  58 E5        29.97F
$$
MNZ001>005-007-008-013>017-022>024-027-028-230200-
   Northwest Minnesota

CITY           SKY/WX    TMP DP  RH WIND       PRES   REMARKS
BEMIDJI        CLEAR     81  63  54 VRB3      29.97F
HALLOCK        SUNNY     81  64  57 CALM      29.96S
ROSEAU         SUNNY     79  66  65 CALM      29.97F
WARROAD        CLEAR     81  64  57 W3        29.96F
THIEF RVR FALL CLOUDY    81  63  54 N3        29.99S
CROOKSTON      CLOUDY    79  64  61 CALM      29.97S
FOSSTON        CLEAR     77  70  78 CALM      29.99S
DETROIT LAKES  CLEAR     82  68  61 NE7       30.00R
MOORHEAD       SUNNY     82  70  65 SE7       29.93F
PARK RAPIDS    CLOUDY    86  64  47 NE5       29.98F
MAHNOMEN       FAIR      78  69  73 NE6       29.97R
$$
MNZ006-009>011-018-025>026-230200-
   North Central Minnesota

CITY           SKY/WX    TMP DP  RH WIND       PRES   REMARKS
BAUDETTE       CLEAR     79  61  53 NW7       29.96F
FLAG ISLAND    CLEAR     79  63  57 NW8       29.95F
INTL FALLS     CLEAR     78  59  51 NW6       29.96F
WASKISH        CLEAR     79  63  57 CALM      29.97F
BIG FORK       CLEAR     81  59  47 CALM      29.98F
LONGVILLE      CLEAR     79  70  73 CALM      29.97F
GRAND RAPIDS   CLEAR     78  63  59 N3        29.99F
CRANE LAKE     CLEAR     79  57  47 NW2       29.98F
ORR            CLEAR     75  61  60 CALM      29.95F
COOK           CLEAR     81  59  47 CALM      29.98F
WALKER         FAIR      80  63  55 N3        29.97F
$$
MNZ012-019>021-037-230200-
   Northeast Minnesota

CITY           SKY/WX    TMP DP  RH WIND       PRES   REMARKS
DULUTH         CLOUDY    81  59  47 NW6       29.98F
ELY            CLEAR     79  54  41 NW3       29.98S
HIBBING        CLEAR     78  59  51 W5        29.97F
EVELETH        CLEAR     81  58  45 W3        29.99F
DULUTH HARBOR  CLOUDY    88  63  42 NW3       29.94F
TWO HARBORS    CLEAR     81  66  61 CALM      29.94F
SILVER BAY     CLEAR     79  64  61 CALM      29.94S
GRAND MARAIS     N/A     82  47  29 CALM      29.91R
G MARAIS ARPRT CLEAR     75  46  35 W7        29.99S
$$
MNZ029>031-032-039>041-046>048-054>057-064-230200-
   West Central Minnesota

CITY           SKY/WX    TMP DP  RH WIND       PRES   REMARKS
FERGUS FALLS   CLOUDY    84  70  61 CALM      29.97R
WHEATON        CLOUDY    84  73  70 E5        29.96R HX  91
MORRIS         CLOUDY    82  70  65 E5        29.95R
ALEXANDRIA     CLOUDY    84  69  60 E6        29.99S
ELBOW LAKE     FAIR      83  71  66 E3        29.98R
GLENWOOD       CLOUDY    82  72  69 E5        29.98S
APPLETON       CLOUDY    82  70  65 E7        29.93R
BENSON         CLOUDY    84  66  54 SE5       29.95S
ORTONVILLE     CLOUDY    82  68  61 E6        29.95R
MADISON        CLOUDY    82  68  61 SE9       29.93R
WILLMAR        FAIR      82  72  69 E3        29.96R
$$
MNZ033>034-036-042>043-049>051-058-059-230200-
   Central Minnesota

CITY           SKY/WX    TMP DP  RH WIND       PRES   REMARKS
ST CLOUD       PTCLDY    82  70  66 E5        29.96F
SAUK CENTRE    FAIR      83  69  61 E3        29.97S
PAYNESVILLE    CLOUDY    83  65  54 E3        29.97R
AITKIN         CLOUDY    84  64  51 N8        29.95F
PINE RIVER     CLOUDY    82  66  57 N3        30.00F
BRAINERD       CLOUDY    85  67  54 CALM      29.96F
STAPLES        CLOUDY    84  66  54 N3        29.97S
LONG PRAIRIE   FAIR      81  72  74 CALM      29.98S
LITTLE FALLS   CLOUDY    81  72  74 CALM      29.97F
LITCHFIELD     PTCLDY    82  70  65 SE5       29.96S
BUFFALO        PTCLDY    84  67  55 CALM      29.97F
MAPLE LAKE     CLOUDY    83  72  70 NE5       29.97F
$$
MNZ037-044-045-052-053-230200-
   East Central Minnesota

CITY           SKY/WX    TMP DP  RH WIND       PRES   REMARKS
PRINCETON      CLEAR     82  72  69 CALM      29.96F
MORA           PTCLDY    79  72  78 CALM      29.97F
CAMBRIDGE      CLEAR     82  68  61 CALM      29.95F
RUSH CITY      CLEAR     78  73  84 CALM      29.96F
MOOSE LAKE     MOCLDY    82  72  69 CALM      29.95F
HINCKLEY       FAIR      82  73  74 CALM      29.96F
CLOQUET        PTCLDY    82  59  44 N3        29.98F
MCGREGOR       PTCLDY    82  66  57 NE5       29.97F
$$
MNZ071>073-080-081-089-090-097-098-230200-
   Southwest Minnesota

CITY           SKY/WX    TMP DP  RH WIND       PRES   REMARKS
MONTEVIDEO     CLOUDY    81  70  69 E6        29.95R
GRANITE FALLS  CLOUDY    84  71  64 E8        29.94F
CANBY          CLOUDY    83  70  63 E8        29.93S
MARSHALL       CLOUDY    84  69  60 SE12      29.93F
REDWOOD FALLS  MOCLDY    84  67  56 E7        29.94F
OLIVIA         CLOUDY    82  64  54 SE6       29.94F
PIPESTONE      PTCLDY    84  75  74 E7        29.98F HX  92
WINDOM         PTCLDY    84  79  84 E3        29.97F HX  96
WORTHINGTON    CLEAR     84  79  85 E6        29.98F HX  96
JACKSON        CLEAR     84  77  79 E5        29.99S HX  94
TRACY          PTCLDY    83  73  69 SE7       29.96F
SLAYTON        MOCLDY    82  75  78 E9        29.98F
$$
MNZ065>067-074>077-082>085-091>093-230200-
   South Central Minnesota

CITY           SKY/WX    TMP DP  RH WIND       PRES   REMARKS
MANKATO        CLEAR     84  72  65 E6        29.97S
NEW ULM        PTCLDY    84  70  61 E3        29.95S
ST JAMES       CLEAR     81  72  74 NE5       29.97S
FAIRMONT       CLEAR     84  63  48 SE6       29.96F
GLENCOE        CLEAR     85  73  66 CALM      29.95F HX  91
FARIBAULT      CLEAR     84  72  65 NE3       29.97F
OWATONNA       CLEAR     84  73  70 E7        29.98S HX  91
WASECA         MOCLDY    82  72  69 NE7       29.98F
ALBERT LEA     CLEAR     84  79  84 SE7       29.97F HX  96
$$
MNZ078>079-086>088-094>096-230200-
   Southeast Minnesota

CITY           SKY/WX    TMP DP  RH WIND       PRES   REMARKS
ROCHESTER      MOCLDY    85  80  85 N3        29.99F HX  99
RED WING       CLEAR     84  72  65 CALM      29.95F
STANTON        CLEAR     84  68  58 E5        29.95F
DODGE CENTER   CLEAR     84  75  74 NE6       29.99F HX  92
WINONA         CLEAR     88  73  62 NE5       29.97S HX  96
AUSTIN         PTCLDY    84  79  84 S3        29.98F HX  96
PRESTON        CLEAR     85  76  76 CALM      30.00F HX  94
$$
ABBREVIATIONS USED IN REMARKS
   TC - TEMPERATURES IN CELSIUS
  WCI - WIND CHILL INDEX
   HX - HEAT INDEX
  VSB - VISIBILITY
$$



USA.gov is the U.S. government's official web portal to all federal, state and local government web resources and services.